Location: Unspecified
(0.0000°N, 0.0000°E)
Time: 06:24:29
(UTC+00:00)

Vanguard 2 Rocket - Pass Details

Date: 24 October 2025
Orbit: 553 x 3288 km, 32.9° (Epoch: 15 November)

Event Time Altitude Azimuth Distance (km) Brightness Sun altitude
Rises 22:21:32 0° 273° (W) 3,995 - -66.2°
Reaches altitude 10° 22:24:26 10° 286° (WNW) 3,364 - -66.8°
Maximum altitude 22:31:39 27° 341° (NNW) 3,046 - -68.3°
Drops below altitude 10° 22:42:37 10° 32° (NNE) 5,208 - -70.5°
Sets 22:48:42 0° 42° (NE) 6,661 - -71.7°
